Home > Weather > Irving > Past weeks

Flag for USA Past Weather in Irving, Texas, USA — Yesterday and Last 2 Weeks

Now
77 °F

Passing clouds.


Feels Like: 79 °F
Forecast: 79 / 98 °F
Wind: 5 mph from South

Location: Dallas / Fort Worth International Airport

Current Time: Jul 29, 2016 at 7:18:43 AM

Latest Report: Jul 29, 2016 at 6:53 AM


Visibility: 10 mi

Pressure: 29.94 "Hg

Humidity: 82%

Dew Point: 71 °F

Location of IrvingLocation

Past Weather in Irving — Graph

°F

Irving Temperature Yesterday

Maximum temperature yesterday: 96 °F (at 2:53 PM)
Minimum temperature yesterday: 79 °F (at 3:53 AM)
Average temperature yesterday: 86 °F

High & Low Weather Summary for the Past Weeks

 TemperatureHumidityPressure
High100 °F (Jul 25, 3:53 PM)87% (Jul 15, 9:53 AM)30.17 "Hg (Jul 15, 9:53 AM)
Low72 °F (Jul 15, 9:53 AM)31% (Jul 22, 3:53 PM)29.82 "Hg (Jul 23, 6:53 PM)
Average88 °F57%29.97 "Hg
* Reported Jul 14 5:53 AM — Jul 29 5:53 AM, Irving, Weather by CustomWeather, © 2016

Note: Actual official high and low records may vary slightly from our data, if they occured in-between our weather recording intervals... More about our weather records

Advertising

Irving Weather History for the Previous 24 Hours

Scroll right to see more
 ConditionsComfort  
Time TempWeatherWind HumidityBarometerVisibility
5:53 AM
Fri, Jul 29
78 °FPassing clouds.12 mph79%29.91 "Hg10 mi
4:53 AM78 °FPassing clouds.9 mph79%29.91 "Hg10 mi
3:53 AM79 °FPassing clouds.9 mph74%29.92 "Hg10 mi
2:53 AM79 °FPassing clouds.8 mph74%29.90 "Hg10 mi
1:53 AM80 °FPassing clouds.8 mph74%29.92 "Hg10 mi
12:53 AM80 °FPassing clouds.6 mph74%29.92 "Hg10 mi
11:53 PM
Thu, Jul 28
80 °FPartly cloudy.8 mph76%29.91 "Hg10 mi
10:53 PM80 °FPassing clouds.9 mph74%29.91 "Hg10 mi
9:53 PM82 °FMostly cloudy.8 mph70%29.90 "Hg10 mi
8:53 PM83 °FPartly sunny.18 mph68%29.91 "Hg10 mi
7:53 PM86 °FPartly sunny.21 mph59%29.89 "Hg10 mi
6:53 PM89 °FBroken clouds.9 mph53%29.87 "Hg10 mi
5:53 PM91 °FBroken clouds.12 mph49%29.85 "Hg10 mi
4:53 PM95 °FThunderstorms. Broken clouds.12 mph43%29.86 "Hg10 mi
3:53 PM96 °FPartly sunny.6 mph41%29.88 "Hg10 mi
2:53 PM96 °FPartly sunny.5 mph41%29.89 "Hg10 mi
1:53 PM93 °FScattered clouds.7 mph46%29.90 "Hg10 mi
12:53 PM93 °FScattered clouds.9 mph49%29.93 "Hg10 mi
11:53 AM91 °FBroken clouds.9 mph52%29.95 "Hg10 mi
10:53 AM88 °FBroken clouds.12 mph57%29.96 "Hg10 mi
9:53 AM84 °FPartly sunny.10 mph65%29.96 "Hg10 mi
8:53 AM82 °FMostly cloudy.12 mph70%29.97 "Hg10 mi
7:53 AM81 °FMostly cloudy.7 mph72%29.96 "Hg10 mi
Weather by CustomWeather, © 2016

See weather overviewHow to use our weather pages